Location: Fontenoy
(49.4072°N, 3.2008°E)
Time: 11:05:42
(UTC+00:00)

Meteor 1-5 Rocket - Pass Details

Date: 15 May 2026
Orbit: 788 x 913 km, 81.2° (Epoch: 5 June)

Event Time Altitude Azimuth Distance (km) Brightness Sun altitude
Rises 21:05:08 0° 349° (NNW) 3,449 8.6 -13.1°
Reaches altitude 10° 21:07:33 10° 351° (N) 2,526 7.7 -13.3°
Maximum altitude 21:13:19 74° 77° (ENE) 925 4.3 -13.9°
Enters shadow 21:17:36 19° 160° (SSE) 1,986 5.5 -14.3°
